| time (UTC) | temp C | wind direction | speed KPH | gust KPH | rain 1hr cm | rain 24hr cm | rain mn cm | humidity % | barometer mb |
| 20260507181903 | 15 | 263 | 3.2 | 8.0 | 0.00 | 0.00 | 0.00 | 63 | 943.4 |
| 20260507180904 | 15 | 266 | 3.2 | 4.8 | 0.00 | 0.00 | 0.00 | 62 | 943.4 |
| 20260507175903 | 15 | 267 | 3.2 | 3.2 | 0.00 | 0.00 | 0.00 | 61 | 943.4 |
| 20260507175404 | 15 | 269 | 4.8 | 8.0 | 0.00 | 0.00 | 0.00 | 60 | 943.3 |
| 20260507174903 | 15 | 270 | 4.8 | 9.7 | 0.00 | 0.00 | 0.00 | 59 | 943.3 |
| 20260507173903 | 15 | 261 | 4.8 | 8.0 | 0.00 | 0.00 | 0.00 | 58 | 943.1 |
| 20260507173404 | 16 | 262 | 3.2 | 8.0 | 0.00 | 0.00 | 0.00 | 57 | 943.1 |
| 20260507172904 | 16 | 287 | 3.2 | 8.0 | 0.00 | 0.00 | 0.00 | 56 | 943.1 |
| 20260507172404 | 16 | 289 | 3.2 | 8.0 | 0.00 | 0.00 | 0.00 | 56 | 943.1 |
| 20260507171903 | 16 | 314 | 3.2 | 8.0 | 0.00 | 0.00 | 0.00 | 55 | 943.1 |
| 20260507171404 | 17 | 286 | 1.6 | 3.2 | 0.00 | 0.00 | 0.00 | 53 | 943.1 |
| 20260507170904 | 17 | 316 | 1.6 | 3.2 | 0.00 | 0.00 | 0.00 | 56 | 943.1 |
| 20260507165904 | 17 | 316 | 1.6 | 4.8 | 0.00 | 0.00 | 0.00 | 55 | 943.1 |
| 20260507165404 | 17 | 337 | 3.2 | 8.0 | 0.00 | 0.00 | 0.00 | 55 | 943.1 |
| 20260507164404 | 18 | 332 | 3.2 | 8.0 | 0.00 | 0.00 | 0.00 | 53 | 943.1 |
| 20260507163903 | 18 | 327 | 3.2 | 8.0 | 0.00 | 0.00 | 0.00 | 52 | 943.1 |
| 20260507163404 | 18 | 339 | 3.2 | 8.0 | 0.00 | 0.00 | 0.00 | 52 | 943.1 |
| 20260507162904 | 18 | 316 | 3.2 | 8.0 | 0.00 | 0.00 | 0.00 | 52 | 943.1 |
| 20260507162404 | 18 | 350 | 3.2 | 8.0 | 0.00 | 0.00 | 0.00 | 52 | 943.1 |
| 20260507161903 | 19 | 1 | 3.2 | 8.0 | 0.00 | 0.00 | 0.00 | 51 | 943.1 |
| 20260507161404 | 19 | 30 | 3.2 | 9.7 | 0.00 | 0.00 | 0.00 | 50 | 943.1 |
| 20260507160405 | 20 | 335 | 3.2 | 9.7 | 0.00 | 0.00 | 0.00 | 49 | 943.1 |
| 20260507153904 | 19 | 12 | 3.2 | 9.7 | 0.00 | 0.00 | 0.00 | 50 | 943.1 |
| 20260507153403 | 19 | 344 | 3.2 | 9.7 | 0.00 | 0.00 | 0.00 | 52 | 943.1 |
| 20260507152404 | 18 | 56 | 3.2 | 8.0 | 0.00 | 0.00 | 0.00 | 55 | 943.1 |
| 20260507151904 | 17 | 104 | 3.2 | 4.8 | 0.00 | 0.00 | 0.00 | 57 | 943.1 |
| 20260507151404 | 17 | 331 | 8.0 | 4.8 | 0.00 | 0.00 | 0.00 | 60 | 943.1 |
| 20260507150903 | 16 | 311 | 8.0 | 8.0 | 0.00 | 0.00 | 0.00 | 59 | 943.1 |
| 20260507150404 | 17 | 35 | 8.0 | 12.9 | 0.00 | 0.00 | 0.00 | 58 | 943.1 |
| 20260507145404 | 16 | 12 | 4.8 | 11.3 | 0.00 | 0.00 | 0.00 | 58 | 943.1 |
| 20260507144904 | 16 | 344 | 4.8 | 9.7 | 0.00 | 0.00 | 0.00 | 58 | 943.1 |
| 20260507144403 | 16 | 6 | 8.0 | 11.3 | 0.00 | 0.00 | 0.00 | 58 | 943.1 |
| 20260507143903 | 16 | 306 | 8.0 | 12.9 | 0.00 | 0.00 | 0.00 | 57 | 943.1 |
| 20260507143404 | 16 | 312 | 8.0 | 12.9 | 0.00 | 0.00 | 0.00 | 57 | 943.1 |
| 20260507142903 | 17 | 304 | 8.0 | 11.3 | 0.00 | 0.00 | 0.00 | 57 | 943.1 |
| 20260507142403 | 17 | 346 | 4.8 | 11.3 | 0.00 | 0.00 | 0.00 | 56 | 943.1 |
| 20260507141404 | 17 | 328 | 8.0 | 8.0 | 0.00 | 0.00 | 0.00 | 54 | 943.1 |
| 20260507140403 | 18 | 301 | 4.8 | 12.9 | 0.00 | 0.00 | 0.00 | 52 | 943.1 |
| 20260507135904 | 18 | 343 | 4.8 | 12.9 | 0.00 | 0.00 | 0.00 | 53 | 943.1 |
| 20260507135403 | 19 | 273 | 4.8 | 12.9 | 0.00 | 0.00 | 0.00 | 54 | 943.3 |
| 20260507134404 | 18 | 19 | 4.8 | 16.1 | 0.00 | 0.00 | 0.00 | 59 | 943.3 |
| 20260507133904 | 17 | 54 | 4.8 | 16.1 | 0.00 | 0.00 | 0.00 | 61 | 943.3 |
| 20260507133404 | 17 | 348 | 8.0 | 12.9 | 0.00 | 0.00 | 0.00 | 59 | 943.3 |
| 20260507132904 | 17 | 22 | 8.0 | 12.9 | 0.00 | 0.00 | 0.00 | 58 | 943.3 |
| 20260507132404 | 18 | 335 | 8.0 | 12.9 | 0.00 | 0.00 | 0.00 | 59 | 943.2 |
| 20260507131906 | 18 | 29 | 8.0 | 12.9 | 0.00 | 0.00 | 0.00 | 59 | 943.2 |
| 20260507130903 | 18 | 16 | 4.8 | 11.3 | 0.00 | 0.08 | 0.00 | 62 | 943.4 |
| 20260507130403 | 17 | 13 | 8.0 | 11.3 | 0.00 | 0.10 | 0.00 | 63 | 943.4 |
| 20260507125904 | 17 | 13 | 8.0 | 12.9 | 0.00 | 0.13 | 0.00 | 62 | 943.4 |
| 20260507125403 | 17 | 286 | 3.2 | 12.9 | 0.00 | 0.18 | 0.00 | 61 | 943.4 |
| 20260507124905 | 17 | 328 | 3.2 | 9.7 | 0.00 | 0.18 | 0.00 | 64 | 943.4 |
| 20260507124403 | 17 | 50 | 8.0 | 9.7 | 0.00 | 0.20 | 0.00 | 66 | 943.4 |
| 20260507123904 | 16 | 338 | 8.0 | 11.3 | 0.00 | 0.23 | 0.00 | 66 | 943.4 |
| 20260507123404 | 16 | 288 | 8.0 | 11.3 | 0.00 | 0.25 | 0.00 | 67 | 943.4 |
| 20260507122904 | 16 | 67 | 8.0 | 11.3 | 0.00 | 0.36 | 0.00 | 66 | 943.4 |
| 20260507122404 | 16 | 308 | 8.0 | 20.9 | 0.00 | 0.46 | 0.00 | 65 | 943.4 |
| 20260507121903 | 16 | 292 | 8.0 | 20.9 | 0.00 | 0.48 | 0.00 | 68 | 943.4 |
| 20260507121403 | 16 | 275 | 3.2 | 8.0 | 0.00 | 0.51 | 0.00 | 69 | 943.4 |
| 20260507120403 | 16 | 264 | 4.8 | 8.0 | 0.00 | 0.56 | 0.00 | 71 | 943.3 |
| 20260507115904 | 15 | 260 | 4.8 | 8.0 | 0.00 | 0.58 | 0.00 | 72 | 943.3 |
| 20260507114903 | 15 | 64 | 4.8 | 14.5 | 0.00 | 0.69 | 0.00 | 72 | 943.5 |
| 20260507113903 | 14 | 333 | 3.2 | 12.9 | 0.00 | 0.71 | 0.00 | 73 | 943.6 |
| 20260507113404 | 14 | 60 | 4.8 | 8.0 | 0.00 | 0.71 | 0.00 | 75 | 943.6 |
| 20260507112404 | 13 | 277 | 9.7 | 12.9 | 0.00 | 0.71 | 0.00 | 73 | 943.7 |
| 20260507111905 | 13 | 331 | 9.7 | 12.9 | 0.00 | 0.71 | 0.00 | 74 | 943.7 |
| 20260507105904 | 13 | 246 | 9.7 | 20.9 | 0.00 | 0.71 | 0.00 | 75 | 943.7 |
| 20260507104903 | 12 | 241 | 3.2 | 11.3 | 0.00 | 0.71 | 0.00 | 75 | 943.7 |
| 20260507104403 | 12 | 275 | 8.0 | 9.7 | 0.00 | 0.71 | 0.00 | 76 | 943.7 |
| 20260507103903 | 12 | 251 | 8.0 | 11.3 | 0.00 | 0.71 | 0.00 | 74 | 943.8 |
| 20260507103404 | 12 | 324 | 11.3 | 19.3 | 0.00 | 0.71 | 0.00 | 76 | 943.8 |
| 20260507102904 | 12 | 281 | 11.3 | 19.3 | 0.00 | 0.71 | 0.00 | 75 | 943.8 |
| 20260507102403 | 12 | 262 | 8.0 | 19.3 | 0.00 | 0.71 | 0.00 | 75 | 943.8 |
| 20260507101404 | 12 | 257 | 11.3 | 14.5 | 0.00 | 0.71 | 0.00 | 78 | 943.8 |
| 20260507100404 | 12 | 254 | 9.7 | 16.1 | 0.00 | 0.71 | 0.00 | 77 | 943.8 |
| 20260507095903 | 11 | 252 | 9.7 | 16.1 | 0.00 | 0.71 | 0.00 | 80 | 943.8 |
| 20260507095403 | 11 | 268 | 14.5 | 19.3 | 0.00 | 0.71 | 0.00 | 80 | 943.9 |
| 20260507094904 | 11 | 225 | 14.5 | 24.1 | 0.00 | 0.71 | 0.00 | 82 | 943.9 |
| 20260507093904 | 11 | 260 | 12.9 | 24.1 | 0.00 | 0.71 | 0.00 | 82 | 943.8 |
| 20260507093404 | 11 | 249 | 12.9 | 20.9 | 0.00 | 0.71 | 0.00 | 82 | 943.8 |
| 20260507092904 | 11 | 261 | 12.9 | 20.9 | 0.00 | 0.71 | 0.00 | 82 | 943.8 |
| 20260507092404 | 10 | 256 | 9.7 | 20.9 | 0.00 | 0.71 | 0.00 | 83 | 943.8 |
| 20260507085904 | 10 | 268 | 8.0 | 14.5 | 0.00 | 0.71 | 0.00 | 85 | 943.6 |
| 20260507085403 | 10 | 250 | 4.8 | 11.3 | 0.00 | 0.71 | 0.00 | 87 | 943.6 |
| 20260507084903 | 10 | 245 | 4.8 | 11.3 | 0.00 | 0.71 | 0.00 | 86 | 943.6 |
| 20260507084404 | 10 | 244 | 4.8 | 11.3 | 0.00 | 0.71 | 0.00 | 87 | 943.6 |
| 20260507083904 | 10 | 261 | 4.8 | 11.3 | 0.00 | 0.71 | 0.00 | 86 | 943.5 |
| 20260507083403 | 10 | 234 | 9.7 | 11.3 | 0.00 | 0.71 | 0.00 | 87 | 943.5 |
| 20260507082904 | 10 | 243 | 9.7 | 16.1 | 0.00 | 0.71 | 0.00 | 86 | 943.5 |
| 20260507082403 | 10 | 214 | 11.3 | 16.1 | 0.00 | 0.71 | 0.00 | 85 | 943.5 |
| 20260507081904 | 10 | 239 | 11.3 | 14.5 | 0.00 | 0.71 | 0.00 | 85 | 943.5 |
| 20260507081403 | 10 | 265 | 4.8 | 14.5 | 0.00 | 0.71 | 0.00 | 84 | 943.5 |
| 20260507080403 | 10 | 260 | 1.6 | 11.3 | 0.00 | 0.71 | 0.00 | 87 | 943.4 |
| 20260507075903 | 10 | 243 | 0.0 | 0.0 | 0.00 | 0.71 | 0.00 | 88 | 943.4 |
| 20260507074404 | 10 | 273 | 0.0 | 0.0 | 0.00 | 0.71 | 0.00 | 89 | 943.4 |
| 20260507073903 | 10 | 273 | 0.0 | 0.0 | 0.00 | 0.71 | 0.00 | 89 | 943.3 |
| 20260507073404 | 10 | 273 | 1.6 | 0.0 | 0.00 | 0.71 | 0.00 | 88 | 943.3 |
| 20260507072904 | 10 | 273 | 1.6 | 0.0 | 0.00 | 0.71 | 0.00 | 88 | 943.3 |
| 20260507072403 | 10 | 256 | 0.0 | 0.0 | 0.00 | 0.71 | 0.00 | 88 | 943.2 |
| 20260507071904 | 10 | 299 | 0.0 | 0.0 | 0.00 | 0.71 | 0.00 | 89 | 943.2 |
| 20260507071404 | 10 | 2 | 0.0 | 0.0 | 0.00 | 0.71 | 0.00 | 92 | 943.2 |
| 20260507070403 | 10 | 93 | 0.0 | 0.0 | 0.00 | 0.71 | 0.00 | 92 | 943.2 |
| 20260507065404 | 10 | 92 | 0.0 | 0.0 | 0.00 | 0.71 | 0.00 | 91 | 943.0 |
| 20260507064403 | 10 | 92 | 0.0 | 0.0 | 0.00 | 0.71 | 0.00 | 91 | 943.0 |
| 20260507063903 | 10 | 88 | 0.0 | 0.0 | 0.00 | 0.71 | 0.00 | 91 | 942.9 |
| 20260507063404 | 9 | 88 | 0.0 | 0.0 | 0.00 | 0.71 | 0.00 | 91 | 942.9 |
| 20260507062904 | 9 | 88 | 0.0 | 0.0 | 0.00 | 0.71 | 0.00 | 91 | 942.9 |
| 20260507062404 | 9 | 88 | 0.0 | 0.0 | 0.00 | 0.71 | 0.00 | 91 | 942.8 |
| 20260507061404 | 9 | 88 | 0.0 | 0.0 | 0.00 | 0.71 | 0.00 | 91 | 942.8 |
| 20260507060903 | 9 | 88 | 0.0 | 0.0 | 0.00 | 0.71 | 0.00 | 90 | 942.7 |
| 20260507055403 | 9 | 88 | 0.0 | 0.0 | 0.00 | 0.71 | 0.00 | 89 | 942.6 |
| 20260507054904 | 9 | 88 | 0.0 | 0.0 | 0.00 | 0.71 | 0.00 | 89 | 942.6 |
| 20260507054404 | 9 | 88 | 3.2 | 0.0 | 0.00 | 0.71 | 0.00 | 89 | 942.6 |
| 20260507053904 | 8 | 255 | 3.2 | 8.0 | 0.00 | 0.71 | 0.00 | 88 | 942.4 |
| 20260507053404 | 8 | 255 | 3.2 | 8.0 | 0.00 | 0.71 | 0.00 | 88 | 942.4 |
| 20260507052904 | 8 | 255 | 3.2 | 8.0 | 0.00 | 0.71 | 0.00 | 87 | 942.4 |
| 20260507051904 | 8 | 237 | 4.8 | 14.5 | 0.00 | 0.71 | 0.00 | 87 | 942.3 |
| 20260507051403 | 8 | 227 | 0.0 | 9.7 | 0.00 | 0.71 | 0.00 | 88 | 942.3 |
| 20260507050904 | 8 | 257 | 0.0 | 9.7 | 0.00 | 0.71 | 0.00 | 88 | 942.1 |
| 20260507045903 | 8 | 237 | 0.0 | 0.0 | 0.00 | 0.71 | 0.00 | 88 | 942.1 |
| 20260507044903 | 8 | 238 | 0.0 | 0.0 | 0.00 | 0.71 | 0.00 | 89 | 942.0 |
| 20260507044403 | 8 | 236 | 0.0 | 0.0 | 0.00 | 0.71 | 0.00 | 89 | 942.0 |
| 20260507043903 | 8 | 234 | 0.0 | 0.0 | 0.00 | 0.71 | 0.00 | 89 | 941.9 |
| 20260507043404 | 8 | 233 | 0.0 | 0.0 | 0.00 | 0.71 | 0.00 | 89 | 941.9 |
| 20260507042904 | 8 | 233 | 0.0 | 0.0 | 0.00 | 0.71 | 0.00 | 88 | 941.9 |
| 20260507042404 | 8 | 234 | 3.2 | 3.2 | 0.00 | 0.71 | 0.00 | 88 | 941.8 |
| 20260507041904 | 8 | 234 | 3.2 | 4.8 | 0.00 | 0.71 | 0.00 | 87 | 941.8 |
| 20260507040404 | 8 | 235 | 0.0 | 0.0 | 0.00 | 0.71 | 0.00 | 87 | 941.8 |
| 20260507035903 | 8 | 235 | 0.0 | 0.0 | 0.00 | 0.71 | 0.00 | 86 | 941.8 |
| 20260507033903 | 8 | 233 | 3.2 | 8.0 | 0.00 | 0.71 | 0.00 | 85 | 941.5 |
| 20260507032404 | 8 | 211 | 0.0 | 0.0 | 0.00 | 0.71 | 0.00 | 85 | 941.5 |
| 20260507031404 | 8 | 265 | 0.0 | 0.0 | 0.00 | 0.71 | 0.00 | 85 | 941.5 |
| 20260507030903 | 8 | 263 | 0.0 | 0.0 | 0.00 | 0.71 | 0.00 | 84 | 941.5 |
| 20260507030403 | 8 | 262 | 3.2 | 3.2 | 0.00 | 0.71 | 0.00 | 84 | 941.5 |
| 20260507025903 | 8 | 263 | 3.2 | 8.0 | 0.00 | 0.71 | 0.00 | 84 | 941.5 |
| 20260507025404 | 8 | 263 | 6.4 | 9.7 | 0.00 | 0.71 | 0.00 | 84 | 941.4 |
| 20260507024903 | 8 | 227 | 8.0 | 11.3 | 0.00 | 0.71 | 0.00 | 84 | 941.4 |
| 20260507024404 | 8 | 249 | 8.0 | 11.3 | 0.00 | 0.71 | 0.00 | 84 | 941.4 |
| 20260507023904 | 8 | 248 | 8.0 | 11.3 | 0.00 | 0.71 | 0.00 | 84 | 941.4 |
| 20260507023404 | 8 | 240 | 9.7 | 11.3 | 0.00 | 0.71 | 0.00 | 84 | 941.4 |
| 20260507022903 | 8 | 254 | 9.7 | 12.9 | 0.00 | 0.71 | 0.00 | 83 | 941.4 |
| 20260507022403 | 8 | 226 | 9.7 | 12.9 | 0.00 | 0.71 | 0.00 | 83 | 941.3 |
| 20260507021904 | 8 | 226 | 9.7 | 14.5 | 0.00 | 0.71 | 0.00 | 83 | 941.3 |
| 20260507021404 | 8 | 225 | 11.3 | 14.5 | 0.00 | 0.71 | 0.00 | 83 | 941.3 |
| 20260507020904 | 8 | 224 | 11.3 | 16.1 | 0.00 | 0.71 | 0.00 | 83 | 941.2 |
| 20260507020404 | 8 | 225 | 11.3 | 16.1 | 0.00 | 0.71 | 0.00 | 83 | 941.2 |
| 20260507015404 | 8 | 226 | 8.0 | 19.3 | 0.00 | 0.71 | 0.00 | 83 | 941.1 |
| 20260507014903 | 8 | 220 | 8.0 | 12.9 | 0.00 | 0.71 | 0.00 | 84 | 941.1 |
| 20260507014404 | 8 | 223 | 8.0 | 12.9 | 0.00 | 0.71 | 0.00 | 84 | 941.1 |
| 20260507013903 | 8 | 232 | 8.0 | 11.3 | 0.00 | 0.71 | 0.00 | 84 | 941.0 |
| 20260507013404 | 8 | 242 | 4.8 | 14.5 | 0.00 | 0.71 | 0.00 | 84 | 941.0 |
| 20260507012403 | 8 | 242 | 8.0 | 9.7 | 0.00 | 0.71 | 0.00 | 85 | 941.0 |
| 20260507011904 | 8 | 263 | 8.0 | 9.7 | 0.00 | 0.71 | 0.00 | 85 | 941.0 |
| 20260507011403 | 8 | 248 | 8.0 | 11.3 | 0.00 | 0.71 | 0.00 | 85 | 941.0 |
| 20260507010904 | 8 | 256 | 8.0 | 11.3 | 0.00 | 0.71 | 0.00 | 85 | 940.9 |
| 20260507010404 | 8 | 227 | 9.7 | 11.3 | 0.00 | 0.71 | 0.00 | 85 | 940.9 |
| 20260507005903 | 8 | 244 | 9.7 | 11.3 | 0.00 | 0.71 | 0.00 | 85 | 940.9 |
| 20260507005404 | 8 | 219 | 9.7 | 11.3 | 0.00 | 0.71 | 0.00 | 85 | 940.9 |
| 20260507004904 | 8 | 223 | 9.7 | 14.5 | 0.00 | 0.71 | 0.00 | 85 | 940.9 |
| 20260507003903 | 8 | 226 | 11.3 | 14.5 | 0.00 | 0.71 | 0.00 | 86 | 940.9 |
| 20260507003404 | 8 | 229 | 9.7 | 12.9 | 0.00 | 0.71 | 0.00 | 86 | 940.9 |
| 20260507002903 | 8 | 247 | 9.7 | 12.9 | 0.00 | 0.71 | 0.00 | 86 | 940.9 |
| 20260507001904 | 8 | 237 | 11.3 | 20.9 | 0.00 | 0.71 | 0.00 | 88 | 940.9 |
| 20260507001404 | 8 | 230 | 9.7 | 14.5 | 0.00 | 0.71 | 0.00 | 88 | 940.9 |
| 20260507000903 | 8 | 231 | 8.0 | 14.5 | 0.00 | 0.71 | 0.00 | 88 | 940.8 |
| 20260507000405 | 8 | 247 | 8.0 | 14.5 | 0.00 | 0.71 | 0.00 | 88 | 940.8 |
| 20260506235903 | 8 | 234 | 8.0 | 9.7 | 0.00 | 0.71 | 0.00 | 89 | 940.8 |
| 20260506235403 | 8 | 259 | 8.0 | 11.3 | 0.00 | 0.71 | 0.00 | 89 | 940.7 |
| 20260506234904 | 8 | 253 | 8.0 | 11.3 | 0.00 | 0.71 | 0.00 | 89 | 940.7 |
| 20260506234404 | 8 | 240 | 3.2 | 11.3 | 0.00 | 0.71 | 0.00 | 88 | 940.7 |
| 20260506233904 | 8 | 233 | 0.0 | 11.3 | 0.00 | 0.71 | 0.00 | 88 | 940.7 |
| 20260506232903 | 8 | 231 | 0.0 | 0.0 | 0.00 | 0.71 | 0.00 | 88 | 940.7 |
| 20260506232404 | 8 | 226 | 0.0 | 0.0 | 0.00 | 0.71 | 0.00 | 87 | 940.7 |
| 20260506231904 | 8 | 224 | 0.0 | 0.0 | 0.00 | 0.71 | 0.00 | 87 | 940.7 |
| 20260506231403 | 8 | 224 | 1.6 | 0.0 | 0.00 | 0.71 | 0.00 | 87 | 940.7 |
| 20260506230904 | 8 | 226 | 1.6 | 0.0 | 0.00 | 0.71 | 0.00 | 87 | 940.5 |
| 20260506230404 | 8 | 226 | 3.2 | 8.0 | 0.00 | 0.71 | 0.00 | 87 | 940.5 |
| 20260506225403 | 8 | 218 | 4.8 | 9.7 | 0.00 | 0.71 | 0.00 | 87 | 940.5 |
| 20260506224903 | 8 | 210 | 4.8 | 9.7 | 0.00 | 0.71 | 0.00 | 87 | 940.5 |
| 20260506224404 | 8 | 253 | 4.8 | 9.7 | 0.00 | 0.71 | 0.00 | 88 | 940.5 |
| 20260506223904 | 8 | 256 | 4.8 | 9.7 | 0.00 | 0.71 | 0.00 | 88 | 940.6 |
| 20260506223404 | 8 | 228 | 4.8 | 8.0 | 0.00 | 0.71 | 0.00 | 87 | 940.6 |
| 20260506222903 | 8 | 244 | 4.8 | 8.0 | 0.00 | 0.71 | 0.00 | 88 | 940.6 |
| 20260506222404 | 8 | 248 | 4.8 | 8.0 | 0.00 | 0.71 | 0.00 | 89 | 940.5 |
| 20260506221904 | 8 | 229 | 4.8 | 8.0 | 0.00 | 0.71 | 0.00 | 89 | 940.5 |
| 20260506220904 | 8 | 229 | 4.8 | 8.0 | 0.00 | 0.71 | 0.00 | 89 | 940.6 |
| 20260506220403 | 8 | 262 | 4.8 | 8.0 | 0.00 | 0.71 | 0.00 | 90 | 940.6 |
| 20260506215904 | 8 | 228 | 4.8 | 8.0 | 0.00 | 0.71 | 0.71 | 90 | 940.6 |
| 20260506215404 | 8 | 226 | 6.4 | 8.0 | 0.00 | 0.71 | 0.71 | 90 | 940.6 |
| 20260506214903 | 8 | 221 | 8.0 | 9.7 | 0.00 | 0.71 | 0.71 | 90 | 940.6 |
| 20260506213904 | 8 | 230 | 8.0 | 11.3 | 0.00 | 0.71 | 0.71 | 90 | 940.4 |
| 20260506213404 | 8 | 224 | 4.8 | 9.7 | 0.00 | 0.71 | 0.71 | 90 | 940.4 |
| 20260506212903 | 8 | 230 | 1.6 | 8.0 | 0.00 | 0.71 | 0.71 | 90 | 940.4 |
| 20260506212403 | 8 | 224 | 3.2 | 8.0 | 0.00 | 0.71 | 0.71 | 90 | 940.5 |
| 20260506211903 | 8 | 221 | 3.2 | 4.8 | 0.00 | 0.71 | 0.71 | 90 | 940.5 |
| 20260506210903 | 8 | 216 | 4.8 | 8.0 | 0.00 | 0.71 | 0.71 | 89 | 940.6 |
| 20260506210403 | 8 | 210 | 4.8 | 8.0 | 0.00 | 0.71 | 0.71 | 89 | 940.6 |
| 20260506205903 | 8 | 220 | 4.8 | 8.0 | 0.00 | 0.71 | 0.71 | 89 | 940.6 |
| 20260506204904 | 8 | 217 | 1.6 | 8.0 | 0.00 | 0.71 | 0.71 | 88 | 940.4 |
| 20260506204403 | 8 | 213 | 1.6 | 4.8 | 0.00 | 0.71 | 0.71 | 88 | 940.4 |
| 20260506203903 | 8 | 216 | 0.0 | 4.8 | 0.00 | 0.71 | 0.71 | 87 | 940.4 |
| 20260506203404 | 8 | 215 | 0.0 | 3.2 | 0.00 | 0.71 | 0.71 | 87 | 940.4 |
| 20260506202904 | 8 | 216 | 0.0 | 0.0 | 0.00 | 0.71 | 0.71 | 88 | 940.4 |
| 20260506202404 | 8 | 216 | 0.0 | 0.0 | 0.00 | 0.71 | 0.71 | 87 | 940.4 |
| 20260506201903 | 8 | 216 | 0.0 | 0.0 | 0.00 | 0.71 | 0.71 | 87 | 940.4 |
| 20260506200904 | 8 | 216 | 0.0 | 0.0 | 0.00 | 0.71 | 0.71 | 86 | 940.4 |
| 20260506200403 | 8 | 216 | 0.0 | 0.0 | 0.00 | 0.71 | 0.71 | 86 | 940.4 |
| 20260506195904 | 8 | 216 | 0.0 | 0.0 | 0.00 | 0.71 | 0.71 | 85 | 940.4 |
| 20260506195404 | 9 | 214 | 1.6 | 3.2 | 0.00 | 0.71 | 0.71 | 84 | 940.1 |
| 20260506194903 | 9 | 216 | 3.2 | 8.0 | 0.00 | 0.71 | 0.71 | 84 | 940.1 |
| 20260506194404 | 9 | 215 | 3.2 | 8.0 | 0.00 | 0.71 | 0.71 | 83 | 940.1 |
| 20260506193403 | 9 | 225 | 3.2 | 8.0 | 0.00 | 0.71 | 0.71 | 83 | 940.1 |
| 20260506192904 | 9 | 235 | 3.2 | 11.3 | 0.00 | 0.71 | 0.71 | 83 | 940.1 |
| 20260506192404 | 9 | 236 | 4.8 | 11.3 | 0.00 | 0.71 | 0.71 | 83 | 939.8 |
| 20260506191903 | 9 | 231 | 4.8 | 9.7 | 0.00 | 0.71 | 0.71 | 82 | 939.8 |
| 20260506191403 | 9 | 226 | 4.8 | 9.7 | 0.00 | 0.71 | 0.71 | 82 | 939.8 |
| 20260506190903 | 9 | 231 | 4.8 | 9.7 | 0.00 | 0.71 | 0.71 | 82 | 939.7 |
| 20260506190404 | 10 | 265 | 4.8 | 11.3 | 0.00 | 0.71 | 0.71 | 81 | 939.7 |
| 20260506185904 | 10 | 208 | 3.2 | 11.3 | 0.00 | 0.71 | 0.71 | 81 | 939.7 |
| 20260506185404 | 10 | 211 | 3.2 | 4.8 | 0.00 | 0.71 | 0.71 | 81 | 939.5 |
| 20260506184904 | 10 | 195 | 3.2 | 8.0 | 0.00 | 0.71 | 0.71 | 80 | 939.5 |
| 20260506184404 | 10 | 248 | 3.2 | 8.0 | 0.00 | 0.71 | 0.71 | 80 | 939.5 |
| 20260506182904 | 10 | 240 | 1.6 | 1.6 | 0.00 | 0.71 | 0.71 | 79 | 939.4 |
| 20260506182404 | 11 | 243 | 1.6 | 8.0 | 0.00 | 0.71 | 0.71 | 80 | 939.3 |